Weather History for Rochester, NH

Change the Weather History Date:

Wednesday, August 28, 2013

  Actual Average (KSFM) Record (KSFM)
Temperature  
Mean Temperature 73 °F -  
Max Temperature 84 °F 74 °F 91 °F (2004)
Min Temperature 62 °F 50 °F 44 °F (1999)
Cooling Degree Days 8    
Growing Degree Days 23 (Base 50)    
Moisture  
Dew Point 63 °F    
Average Humidity 81    
Maximum Humidity 96    
Minimum Humidity 56    
Precipitation  
Precipitation 0.21 in - - ()
Sea Level Pressure  
Sea Level Pressure 29.91 in    
Wind  
Wind Speed 3 mph (NE)    
Max Wind Speed 7 mph    
Max Gust Speed -    
Visibility 8 miles    
Events Rain    
Averages and records for this station are not official NWS values.
T = Trace of Precipitation, MM = Missing Value Source: NWS Daily Summary

Daily Weather History Graph

Daily Weather History Graph

Search for Another Location

Airport:

Trip Planner

Search our weather history database for the weather conditions in past years. The results will help you decide how hot, cold, wet, or windy it might be!

Date:

Astronomy

Aug. 28, 2013 Rise Set
Actual Time 6:03 AM EDT 7:25 PM EDT
Civil Twilight 5:33 AM EDT 7:54 PM EDT
Nautical Twilight 4:58 AM EDT 8:30 PM EDT
Astronomical Twilight 4:20 AM EDT 9:08 PM EDT
Moon 11:49 PM EDT (8/28) 2:04 PM EDT (8/28)
Length of Visible Light 14h 20m
Length of Day
13h 21m
Waning Gibbous, 47% of the Moon is Illuminated
Aug 28
Waning Gibbous
Sep 5
New
Sep 12
First Quarter
Sep 19
Full
Sep 26
Last Quarter

Hourly Weather History & Observations

Time (EDT) Temp. Heat Index Dew Point Humidity Pressure Visibility Wind Dir Wind Speed Gust Speed Precip Events Conditions
12:51 AM 64.0 °F - 62.1 °F 93% 29.89 in 7.0 mi Calm Calm - N/A   Clear
1:51 AM 62.1 °F - 61.0 °F 96% 29.88 in 6.0 mi NW 5.8 mph - N/A   Clear
2:51 AM 63.0 °F - 61.0 °F 93% 29.86 in 7.0 mi NW 3.5 mph - N/A   Clear
3:51 AM 63.0 °F - 61.0 °F 93% 29.86 in 8.0 mi NW 3.5 mph - N/A   Clear
4:51 AM 62.1 °F - 60.1 °F 93% 29.86 in 6.0 mi NW 4.6 mph - N/A   Clear
5:51 AM 63.0 °F - 60.1 °F 90% 29.88 in 6.0 mi Calm Calm - N/A   Clear
6:51 AM 62.1 °F - 60.1 °F 93% 29.90 in 8.0 mi Calm Calm - N/A   Clear
7:51 AM 66.9 °F - 63.0 °F 87% 29.89 in 10.0 mi Calm Calm - N/A   Scattered Clouds
8:51 AM 72.0 °F - 63.0 °F 73% 29.90 in 10.0 mi Calm Calm - N/A   Clear
9:51 AM 75.9 °F - 64.0 °F 67% 29.90 in 10.0 mi Calm Calm - N/A   Clear
10:51 AM 79.0 °F - 64.0 °F 60% 29.90 in 9.0 mi Variable 3.5 mph - N/A   Clear
11:51 AM 81.0 °F 82.7 °F 64.9 °F 58% 29.89 in 10.0 mi SE 4.6 mph - N/A   Clear
12:51 PM 82.9 °F 85.0 °F 66.0 °F 56% 29.88 in 10.0 mi Variable 4.6 mph - N/A   Clear
1:51 PM 84.0 °F 86.5 °F 66.9 °F 56% 29.87 in 10.0 mi SE 5.8 mph - N/A   Scattered Clouds
2:51 PM 82.0 °F 83.8 °F 64.9 °F 56% 29.86 in 10.0 mi SE 6.9 mph - N/A   Clear
3:51 PM 79.0 °F - 62.1 °F 56% 29.87 in 10.0 mi SE 5.8 mph - N/A   Clear
4:51 PM 75.0 °F - 64.0 °F 69% 29.88 in 10.0 mi SE 4.6 mph - N/A   Clear
5:51 PM 72.0 °F - 63.0 °F 73% 29.89 in 10.0 mi SE 3.5 mph - N/A   Scattered Clouds
6:51 PM 70.0 °F - 63.0 °F 78% 29.90 in 10.0 mi ESE 4.6 mph - N/A   Mostly Cloudy
7:51 PM 68.0 °F - 63.0 °F 84% 29.93 in 10.0 mi ESE 4.6 mph - N/A   Overcast
8:23 PM 68.0 °F - 62.6 °F 83% 29.96 in 10.0 mi East 3.5 mph - N/A   Overcast
8:51 PM 66.9 °F - 63.0 °F 87% 29.96 in 10.0 mi Calm Calm - N/A   Overcast
9:51 PM 66.0 °F - 64.9 °F 96% 29.98 in 6.0 mi North 3.5 mph - 0.05 in Rain Light Rain
10:38 PM 66.2 °F - 64.4 °F 94% 30.00 in 5.0 mi NNE 4.6 mph - 0.05 in Rain Rain
10:51 PM 66.0 °F - 64.9 °F 96% 29.99 in 4.0 mi NNE 3.5 mph - 0.08 in Rain Rain
11:06 PM 66.2 °F - 64.4 °F 94% 30.00 in 4.0 mi NNE 4.6 mph - 0.03 in Rain Rain
11:33 PM 66.2 °F - 64.4 °F 94% 29.99 in 5.0 mi North 6.9 mph - 0.06 in Rain Light Rain
11:51 PM 66.0 °F - 64.9 °F 96% 29.98 in 6.0 mi NW 4.6 mph - 0.08 in Rain Light Rain